Current weather by "City, St" or "zip code"  
 

Current Conditions: Alamogordo-White, NM

Fair


59.0 F

Last Updated on Oct 29 2020, 4:55 pm MDT
Humidity: 39%
Wind Speed: W 4.6 mph
Barometer 30.28 in
Dewpoint: 33.8 F
Visibility: 10.00 mi
Precip: --
Heat Index: NA
Wind Chill: 59 F
Current conditions at:

Alamogordo-White, NM (KALM)

Lat: 32.83512 Lon: 105.99408

Local Radar Image active severe weather and emergency alerts image image weather storm and storm spotter reports image weather observation monitoring service image
Local
Radar
Active
Alerts
Storm Reports Obs
Monitoring

Sign-up For Email & Text Message Weather Alert Notification Services



Advertise Here

Observation History for Alamogordo-White, NM


Time Wind
(mph)
Vis
(mi)
Weather Precip (in) Temperature (F) Relative
Humidity
Wind
Chill
(F)
Heat
Index
(F)
Pressure
Air Dwpt altimeter
(in)
sea level
(mb)
Rmks
4:55 pm MDT W 4.6 10.00 Fair -- 59.0 33.8 39% 59 NA 30.28 M
3:55 pm MDT SW 4.6 10.00 Fair -- 59.0 32.0 36% 59 NA 30.29 M
2:55 pm MDT SW 4.6 10.00 Fair -- 59.0 32.0 36% 59 NA 30.30 M
1:55 pm MDT SW 6.9 10.00 Fair -- 59.0 32.0 36% 58 NA 30.32 M
12:55 pm MDT S 8.1 10.00 Fair -- 57.0 37.4 48% 55 NA 30.35 M
11:55 am MDT SE 3.5 10.00 Fair -- 54.0 33.8 47% NA NA 30.38 M
10:55 am MDT S 3.5 10.00 Fair -- 48.0 35.6 62% NA NA 30.39 M
9:55 am MDT S 6.9 10.00 Fair -- 41.0 35.6 81% 36 NA 30.39 M
8:55 am MDT S 4.6 10.00 Fair -- 36.0 35.6 100% 32 NA 30.36 M
7:55 am MDT E 3.5 10.00 Fair -- 32.0 32.0 100% NA NA 30.31 M
6:55 am MDT S 3.5 10.00 Fair -- 32.0 32.0 100% NA NA 30.32 M
5:55 am MDT SE 6.9 10.00 Fair -- 34.0 32.0 93% 28 NA 30.29 M
4:55 am MDT NE 10.4 10.00 Fair -- 41.0 32.0 70% 35 NA 30.29 M
3:55 am MDT NE 8.1 10.00 Fair -- 37.0 32.0 81% 31 NA 30.27 M
2:55 am MDT E 5.8 10.00 Fair -- 34.0 33.8 100% 29 NA 30.27 M
1:55 am MDT E 6.9 10.00 Fair -- 32.0 32.0 100% 26 NA 30.26 M
12:15 am MDT N 6.9 10.00 Fair -- 37.0 33.8 87% 32 NA 30.23 M
11:55 pm MDT NE 6.9 10.00 Fair -- 37.0 35.6 93% 32 NA 30.23 M
10:55 pm MDT N 0.0 10.00 Fair -- 37.0 35.6 93% NA NA 30.22 M
9:55 pm MDT E 6.9 10.00 Fair -- 37.0 32.0 81% 32 NA 30.17 M
8:55 pm MDT NW 6.9 10.00 Fair -- 39.0 33.8 81% 34 NA 30.14 M
7:55 pm MDT N 8.1 10.00 Fair -- 45.0 33.8 66% 41 NA 30.10 M
6:55 pm MDT N 9.2 10.00 Fair -- 45.0 33.8 66% 40 NA 30.08 M
5:55 pm MDT N 8.1 10.00 Overcast -- 48.0 32.0 54% 44 NA 30.10 M

Regional Weather Observation


Alamogordo-White, NM (KALM)

Fair
59.0 F

Sierra Blanca Regional Airport, NM (KSRR)

Fair
52.0 F

Las Cruces, Las Cruces International Airport, NM (KLRU)

Fair
62.0 F

Truth Or Consequences, Truth Or Consequences Municipal Airport, NM (KTCS)

Fair
63.0 F

Socorro Municipal Airport, NM (KONM)

Fair
62.0 F

Corona/Lincoln, NM (K4CR)

Clear
52.0 F